Location: Lourdes
(43.1000°N, 0.0500°W)
Time: 18:19:02
(UTC+00:00)

IRS-1C Rocket - Pass Details

Date: 30 November 2020
Orbit: 800 x 806 km, 99.0° (Epoch: 22 January)

Event Time Altitude Azimuth Distance (km) Brightness Sun altitude
Rises 18:02:34 0° 158° (SSE) 3,307 7.2 -17.1°
Reaches altitude 10° 18:04:53 10° 156° (SSE) 2,381 6.4 -17.5°
Maximum altitude 18:10:07 72° 73° (ENE) 848 4.0 -18.4°
Drops below altitude 10° 18:15:24 10° 350° (N) 2,396 6.5 -19.3°
Sets 18:17:45 0° 348° (NNW) 3,331 7.3 -19.8°
